Hourly Data Report for October 12, 2016

All times are specified in Local Standard Time (LST). Add 1 hour to adjust for Daylight Saving Time where and when it is observed.

CLYDE RIVER A
NUNAVUT

70°29'09.000" N
68°31'01.000" W
26.50 m
2400804
71090
YCY

Download Data

Hourly Data (October 2016)
Hourly Data Report for October 12, 2016
Temp Definition
°C
Dew Point Temp Definition
°C
Rel Hum Definition
%
Wind Dir Definition
10's deg

Wind Spd Definition
km/h
Visibility Definition
km
Stn Press Definition
kPa
Hmdx Definition


Wind Chill Definition


Weather Definition


TIME
00:00 Legend Double Dagger -7.2 -14.9 55 27 17 16.1 100.74   -14 LegendNANA
01:00 Legend Double Dagger -8.3 -15.8 55 25 13 16.1 100.75   -14 LegendNANA
02:00 Legend Double Dagger -7.2 -14.8 55 24 8 16.1 100.77   -11 LegendNANA
03:00 Legend Double Dagger -10.1 -17.1 57 30 13 16.1 100.78   -16 LegendNANA
04:00 Legend Double Dagger -10.2 -18.1 53 31 5 16.1 100.82   -13 LegendNANA
05:00 Legend Double Dagger -12.1 -18.0 62 32 11 16.1 100.82   -18 LegendNANA
06:00 Legend Double Dagger -10.8 -17.0 61 29 9 16.1 100.83   -16 LegendNANA
07:00 Legend Double Dagger -10.1 -17.0 57 26 13 16.1 100.85   -16 LegendNANA
08:00 Legend Double Dagger -11.4 -17.1 63 27 11 16.1 100.85   -17 LegendNANA
09:00 Legend Double Dagger -9.5 -16.4 58 25 9 16.1 100.85   -14 LegendNANA
10:00 Legend Double Dagger -10.6 -15.1 70 28 5 16.1 100.85   -14 LegendNANA
11:00 Legend Double Dagger -9.3 -14.4 67 28 8 16.1 100.88   -14 LegendNANA
12:00 Legend Double Dagger -9.3 -14.7 65 29 13 16.1 100.91   -15 LegendNANA
13:00 Legend Double Dagger -9.2 -14.8 64 29 9 16.1 100.95   -14 LegendNANA
14:00 Legend Double Dagger -10.0 -15.1 67 30 15 16.1 101.01   -17 LegendNANA
15:00 Legend Double Dagger -9.0 -16.0 57 26 9 16.1 101.06   -14 LegendNANA
16:00 Legend Double Dagger -10.8 -16.6 63 28 9 16.1 101.12   -16 LegendNANA
17:00 Legend Double Dagger -10.5 -17.0 59 26 11 16.1 101.14   -16 LegendNANA
18:00 Legend Double Dagger -10.7 -16.8 62 28 9 16.1 101.17   -16 LegendNANA
19:00 Legend Double Dagger -10.9 -16.9 62 28 11 16.1 101.20   -17 LegendNANA
20:00 Legend Double Dagger -10.9 -16.6 63 27 8 16.1 101.22   -16 LegendNANA
21:00 Legend Double Dagger -10.1 -16.1 62 27 11 16.1 101.24   -16 LegendNANA
22:00 Legend Double Dagger -10.4 -15.9 65 26 11 16.1 101.24   -16 LegendNANA
23:00 Legend Double Dagger -10.3 -14.9 70 28 9 16.1 101.24   -15 LegendNANA

Notes on Data Quality.

Legend

  • E = Estimated
  • M = Missing
  • NA = Not Available
  • ‡ = Partner data that is not subject to review by the National Climate Archives
Date modified: